Back to catalog

GLOBALSTAR M040

AliveCommunicationsLEO
NORAD 25622·PAYLOAD·🇺🇸 United States

Launched Feb 9, 1999 from Baikonur Cosmodrome

Loading…

Next Passes (next 24 hours)

TLE

FreshSource: Space-Track

Epoch: Sep 14, 2026, 07:48 UTC

1 25622U 99004B   26257.32550103 -.00000090  00000-0  74778-4 0  9997
2 25622  51.9903 115.3686 0000730  13.5148 158.1185 12.62038593272591

Track GLOBALSTAR M040 in real time with AllMySat

Download on the App Store